FW8381 Weather Reports


time (UTC)temp
C
wind
direction
speed
KPH
gust
KPH
rain 1hr
cm
rain 24hr
cm
rain mn
cm
humidity
%
barometer
mb
20260510063517 8 23 1.6 6.4 0.00 1.04 0.00 95 1011.7
20260510062517 7 0.0 1.6 0.00 1.04 0.00 95 1011.5
20260510061517 6 23 1.6 4.8 0.00 1.04 0.00 95 1011.1
20260510060517 6 45 1.6 6.4 0.00 1.04 0.00 95 1011.1
20260510055517 6 0.0 3.2 0.00 1.04 0.00 95 1011.1
20260510054517 6 0.0 6.4 0.00 1.04 0.00 95 1011.3
20260510053518 6 0 1.6 4.8 0.00 1.04 0.00 95 1011.1
20260510052517 6 23 1.6 3.2 0.00 1.04 0.00 95 1011.3
20260510051517 6 0.0 4.8 0.00 1.04 0.00 95 1011.3
20260510050517 6 23 4.8 11.3 0.00 1.04 0.00 95 1011.3
20260510045517 6 23 3.2 9.7 0.00 1.04 0.00 95 1011.2
20260510044516 6 23 4.8 11.3 0.00 1.04 0.00 95 1011.2
20260510043517 6 23 3.2 6.4 0.00 1.04 0.00 95 1011.5
20260510042517 6 23 3.2 8.0 0.00 1.04 0.00 95 1011.6
20260510041517 6 45 4.8 8.0 0.00 1.04 0.00 95 1011.6
20260510040516 6 338 1.6 4.8 0.00 1.04 0.00 95 1011.7
20260510035517 6 23 3.2 9.7 0.00 1.04 0.00 95 1011.6
20260510034517 7 23 3.2 9.7 0.00 1.04 0.00 95 1011.7
20260510033517 6 23 3.2 8.0 0.00 1.04 0.00 95 1012.1
20260510032517 7 45 6.4 11.3 0.00 1.04 0.00 95 1012.2
20260510031537 7 0 3.2 8.0 0.00 1.04 0.00 95 1012.2
20260510030517 7 23 4.8 8.0 0.00 1.04 0.00 95 1012.2
20260510025557 7 23 3.2 8.0 0.00 1.04 0.00 95 1012.3
20260510024538 7 23 6.4 9.7 0.00 1.04 0.00 95 1012.6
20260510023517 7 0.0 3.2 0.00 1.04 0.00 95 1012.5
20260510022517 7 23 3.2 8.0 0.00 1.04 0.00 95 1012.6
20260510021517 7 338 1.6 4.8 0.00 1.04 0.00 95 1012.5
20260510020516 7 315 1.6 6.4 0.00 1.04 0.00 95 1012.5
20260510015516 7 0 3.2 6.4 0.00 1.04 0.00 95 1012.5
20260510014537 7 23 6.4 9.7 0.00 1.04 0.00 95 1012.5
20260510013516 7 23 4.8 8.0 0.00 1.04 0.00 95 1012.4
20260510012517 7 0 1.6 6.4 0.00 1.04 0.00 95 1012.4
20260510011516 8 0.0 1.6 0.00 1.04 0.00 95 1012.6
20260510010516 8 23 1.6 3.2 0.00 1.04 0.00 95 1012.9
20260510005517 8 315 1.6 3.2 0.00 1.04 0.00 95 1012.7
20260510004558 8 0 4.8 8.0 0.00 1.04 0.00 95 1012.8
20260510003517 8 45 1.6 3.2 0.00 1.04 0.00 95 1013.1
20260510002516 8 0.0 1.6 0.00 1.04 0.00 95 1013.5
20260510001516 8 0.0 0.0 0.00 1.04 0.00 95 1013.7
20260510000517 8 0.0 1.6 0.00 1.04 0.00 95 1013.7
20260509235517 8 45 4.8 6.4 0.00 1.04 1.04 95 1013.8
20260509234517 8 0.0 0.0 0.00 1.04 1.04 95 1013.9
20260509233517 8 0.0 1.6 0.00 1.04 1.04 94 1013.8
20260509232537 8 0.0 1.6 0.00 1.04 1.04 95 1014.0
20260509231517 8 0.0 0.0 0.00 1.04 1.04 94 1014.5
20260509230517 8 45 1.6 3.2 0.00 1.04 1.04 94 1014.2
20260509225537 8 45 1.6 4.8 0.00 1.04 1.04 94 1014.6
20260509224517 8 0.0 0.0 0.00 1.04 1.04 95 1014.6
20260509223537 8 45 1.6 3.2 0.00 1.04 1.04 94 1014.3
20260509222517 8 0.0 0.0 0.00 1.04 1.04 94 1014.5
20260509221517 8 45 1.6 4.8 0.00 1.04 1.04 94 1014.3
20260509220517 8 0.0 3.2 0.00 1.04 1.04 94 1014.5
20260509215516 8 0.0 1.6 0.03 1.04 1.04 94 1014.5
20260509214517 8 45 1.6 3.2 0.03 1.04 1.04 94 1014.4
20260509213516 8 0.0 1.6 0.03 1.04 1.04 94 1014.5
20260509212517 8 23 1.6 4.8 0.03 1.04 1.04 94 1014.5
20260509211516 8 23 1.6 6.4 0.03 1.04 1.04 94 1014.2
20260509210517 8 0.0 0.0 0.03 1.04 1.04 94 1014.2
20260509205536 8 45 1.6 4.8 0.00 1.02 1.02 94 1014.1
20260509204517 8 45 1.6 6.4 0.00 1.02 1.02 94 1014.1
20260509203516 8 0.0 1.6 0.00 1.02 1.02 94 1013.8
20260509202516 8 0.0 3.2 0.00 1.02 1.02 94 1013.8
20260509201516 8 23 4.8 6.4 0.00 1.02 1.02 94 1013.4
20260509200517 8 23 3.2 8.0 0.00 1.02 1.02 94 1012.9
20260509195517 8 0.0 0.0 0.05 1.02 1.02 94 1013.0
20260509194537 8 0.0 0.0 0.05 1.02 1.02 94 1012.7
20260509193516 8 0.0 0.0 0.10 1.02 1.02 94 1012.2
20260509192516 8 0.0 0.0 0.15 1.02 1.02 94 1012.0
20260509191517 8 0.0 0.0 0.23 1.02 1.02 94 1011.9
20260509190516 9 0.0 0.0 0.30 1.02 1.02 93 1011.7
20260509185517 9 270 1.6 9.7 0.33 0.99 0.99 93 1011.5
20260509184517 9 0.0 3.2 0.36 0.97 0.97 93 1011.2
20260509183516 9 0.0 1.6 0.36 0.91 0.91 93 1011.0
20260509182516 9 338 1.6 4.8 0.38 0.89 0.89 93 1011.1
20260509181517 9 45 1.6 3.2 0.36 0.79 0.79 93 1011.5
20260509180516 9 68 1.6 6.4 0.33 0.71 0.71 93 1011.7
20260509175516 9 23 1.6 3.2 0.33 0.64 0.64 93 1011.7
20260509174557 10 68 3.2 8.0 0.41 0.61 0.61 92 1011.8
20260509173557 10 45 1.6 4.8 0.51 0.56 0.56 92 1011.8
20260509172516 10 0.0 3.2 0.51 0.51 0.51 92 1012.3
20260509171517 10 225 1.6 4.8 0.43 0.43 0.43 91 1012.5
20260509170516 10 225 1.6 6.4 0.38 0.38 0.38 91 1012.6
20260509165557 10 180 3.2 8.0 0.30 0.30 0.30 90 1012.5
20260509164516 11 158 4.8 9.7 0.20 0.20 0.20 89 1012.7
20260509163536 11 180 1.6 6.4 0.05 0.05 0.05 88 1012.9
20260509162516 11 180 3.2 9.7 0.00 0.00 0.00 87 1012.8
20260509161516 11 225 8.0 14.5 0.00 0.00 0.00 87 1012.6
20260509160516 11 203 8.0 12.9 0.00 0.00 0.00 87 1012.0
20260509155517 11 203 9.7 17.7 0.00 0.00 0.00 87 1011.7
20260509154516 12 225 9.7 17.7 0.00 0.00 0.00 87 1011.5
20260509153536 12 225 12.9 17.7 0.00 0.00 0.00 86 1011.3
20260509152516 12 225 9.7 20.9 0.00 0.00 0.00 85 1011.1
20260509151516 12 203 8.0 16.1 0.00 0.00 0.00 85 1011.4
20260509150516 12 248 6.4 11.3 0.00 0.00 0.00 85 1011.5
20260509145516 12 225 4.8 9.7 0.00 0.00 0.00 84 1011.9
20260509144516 12 203 9.7 17.7 0.00 0.00 0.00 82 1012.2
20260509143516 12 180 4.8 9.7 0.00 0.00 0.00 82 1012.4
20260509142516 13 225 4.8 9.7 0.00 0.00 0.00 82 1012.5
20260509141536 13 225 1.6 4.8 0.00 0.00 0.00 81 1012.6
20260509140516 12 203 4.8 8.0 0.00 0.00 0.00 81 1012.8
20260509135517 13 248 6.4 11.3 0.00 0.00 0.00 81 1013.2
20260509134516 13 225 8.0 17.7 0.00 0.00 0.00 80 1013.2
20260509133515 13 203 8.0 17.7 0.00 0.00 0.00 79 1013.4
20260509132516 13 203 8.0 17.7 0.00 0.00 0.00 79 1013.5
20260509131516 13 180 9.7 14.5 0.00 0.00 0.00 78 1013.1
20260509130517 13 225 8.0 14.5 0.00 0.00 0.00 79 1013.3
20260509125516 13 180 3.2 8.0 0.00 0.00 0.00 78 1012.8
20260509124515 13 180 4.8 11.3 0.00 0.00 0.00 78 1013.3
20260509123536 13 180 6.4 12.9 0.00 0.00 0.00 79 1013.6
20260509122516 13 180 8.0 14.5 0.00 0.00 0.00 79 1013.6
20260509121516 13 180 8.0 12.9 0.00 0.00 0.00 78 1013.8
20260509120515 13 180 9.7 17.7 0.00 0.00 0.00 77 1014.2
20260509115516 13 203 9.7 16.1 0.00 0.00 0.00 76 1014.1
20260509114536 13 180 9.7 17.7 0.00 0.00 0.00 74 1014.0
20260509113518 14 180 8.0 17.7 0.00 0.00 0.00 72 1014.1
20260509112517 15 225 6.4 12.9 0.00 0.00 0.00 73 1014.1
20260509111518 15 203 4.8 12.9 0.00 0.00 0.00 72 1014.0
20260509110518 15 225 8.0 14.5 0.00 0.00 0.00 73 1014.0
20260509105517 14 225 8.0 12.9 0.00 0.00 0.00 72 1014.4
20260509104518 14 203 9.7 19.3 0.00 0.00 0.00 72 1014.5
20260509103518 14 225 6.4 14.5 0.00 0.00 0.00 74 1014.6
20260509102518 13 180 6.4 12.9 0.00 0.00 0.00 74 1014.7
20260509101518 14 180 11.3 16.1 0.00 0.00 0.00 73 1014.8
20260509100517 15 180 3.2 9.7 0.00 0.00 0.00 71 1014.8
20260509095517 15 225 8.0 14.5 0.00 0.00 0.00 70 1014.6
20260509094518 15 203 6.4 14.5 0.00 0.00 0.00 73 1014.3
20260509093518 14 180 6.4 11.3 0.00 0.00 0.00 74 1014.4
20260509092517 14 203 6.4 11.3 0.00 0.00 0.00 72 1014.5
20260509091518 14 180 3.2 9.7 0.00 0.00 0.00 71 1014.4
20260509090517 13 158 4.8 9.7 0.00 0.00 0.00 74 1014.5
20260509085518 13 203 6.4 11.3 0.00 0.00 0.00 76 1014.4
20260509084517 13 225 3.2 8.0 0.00 0.00 0.00 77 1014.4
20260509083517 12 180 4.8 9.7 0.00 0.00 0.00 79 1014.3
20260509082518 13 180 4.8 9.7 0.00 0.00 0.00 80 1014.5
20260509081517 13 0.0 3.2 0.00 0.00 0.00 83 1014.4
20260509080517 12 203 3.2 6.4 0.00 0.00 0.00 86 1014.5
20260509075518 12 203 4.8 8.0 0.00 0.00 0.00 88 1014.4
20260509074517 12 135 1.6 4.8 0.00 0.00 0.00 91 1014.7
20260509073517 11 0.0 3.2 0.00 0.00 0.00 92 1014.6
20260509072537 11 180 3.2 8.0 0.00 0.00 0.00 93 1014.7
20260509071517 11 45 1.6 3.2 0.00 0.00 0.00 94 1014.5
20260509070517 10 68 1.6 6.4 0.00 0.00 0.00 94 1014.8
20260509065517 10 0.0 1.6 0.00 0.00 0.00 94 1015.0
20260509064517 9 180 1.6 4.8 0.00 0.00 0.00 94 1014.8